Weather History for Oceana NAS, VA

Change the Weather History Date:

Saturday, December 1, 2012

  Actual Average Record
Temperature  
Mean Temperature 46 °F -  
Max Temperature 59 °F 55 °F 77 °F (2001)
Min Temperature 33 °F 37 °F 30 °F (2002)
Degree Days  
Heating Degree Days 19    
Moisture  
Dew Point 35 °F    
Average Humidity 74    
Maximum Humidity 89    
Minimum Humidity 41    
Precipitation  
Precipitation 0.00 in - - ()
Sea Level Pressure  
Sea Level Pressure 30.38 in    
Wind  
Wind Speed 1 mph (ESE)    
Max Wind Speed 9 mph    
Max Gust Speed -    
Visibility 8 miles    
Events Fog    
Averages and records for this station are not official NWS values.
T = Trace of Precipitation, MM = Missing Value Source: NWS Daily Summary

Daily Weather History Graph

Daily Weather History Graph

Search for Another Location

Airport:

Trip Planner

Search our weather history database for the weather conditions in past years. The results will help you decide how hot, cold, wet, or windy it might be!

Date:

Astronomy

Dec. 01, 2012 Rise Set
Actual Time 6:58 AM EST 4:47 PM EST
Civil Twilight 6:30 AM EST 5:16 PM EST
Nautical Twilight 5:58 AM EST 5:48 PM EST
Astronomical Twilight 5:26 AM EST 6:19 PM EST
Moon 7:34 PM EST 9:10 AM EST
Length of Visible Light 10h 46m
Length of Day
9h 49m
Waning Gibbous, 92% of the Moon is Illuminated
Dec 1
Waning Gibbous
Dec 6
Last Quarter
Dec 13
New
Dec 20
First Quarter
Dec 28
Full

Hourly Weather History & Observations

Time (EST) Temp. Windchill Dew Point Humidity Pressure Visibility Wind Dir Wind Speed Gust Speed Precip Events Conditions
12:56 AM 37.0 °F - 33.1 °F 86% 30.35 in 10.0 mi Calm Calm - N/A   Partly Cloudy
1:56 AM 36.0 °F - 32.0 °F 86% 30.36 in 8.0 mi Calm Calm - N/A   Clear
2:56 AM 36.0 °F - 32.0 °F 86% 30.36 in 8.0 mi Calm Calm - N/A   Partly Cloudy
3:56 AM 35.1 °F - 30.9 °F 85% 30.36 in 7.0 mi Calm Calm - N/A   Clear
4:56 AM 34.0 °F - 30.9 °F 89% 30.36 in 7.0 mi Calm Calm - N/A   Clear
5:56 AM 33.1 °F - 30.0 °F 89% 30.37 in 8.0 mi Calm Calm - N/A   Clear
6:56 AM 34.0 °F - 30.0 °F 85% 30.38 in 7.0 mi Calm Calm - N/A Fog Patches of Fog
7:56 AM 36.0 °F - 33.1 °F 89% 30.40 in 4.0 mi Calm Calm - N/A   Scattered Clouds
8:56 AM 46.9 °F - 39.9 °F 77% 30.42 in 7.0 mi Calm Calm - N/A   Scattered Clouds
9:56 AM 52.0 °F - 41.0 °F 66% 30.43 in 9.0 mi Calm Calm - N/A   Scattered Clouds
10:56 AM 57.9 °F - 37.9 °F 47% 30.41 in 10.0 mi Calm Calm - N/A   Scattered Clouds
11:56 AM 59.0 °F - 35.1 °F 41% 30.39 in 10.0 mi East 8.1 mph - N/A   Mostly Cloudy
12:56 PM 59.0 °F - 36.0 °F 42% 30.36 in 10.0 mi ESE 6.9 mph - N/A   Scattered Clouds
1:56 PM 59.0 °F - 36.0 °F 42% 30.36 in 10.0 mi East 9.2 mph - N/A   Scattered Clouds
2:56 PM 57.0 °F - 37.9 °F 49% 30.36 in 10.0 mi East 5.8 mph - N/A   Clear
3:56 PM 53.1 °F - 39.0 °F 59% 30.36 in 10.0 mi ESE 5.8 mph - N/A   Clear
4:56 PM 48.0 °F - 37.9 °F 68% 30.36 in 10.0 mi East 3.5 mph - N/A   Scattered Clouds
5:56 PM 45.0 °F - 37.9 °F 76% 30.37 in 10.0 mi Calm Calm - N/A   Scattered Clouds
6:56 PM 44.1 °F - 37.9 °F 79% 30.39 in 10.0 mi Calm Calm - N/A   Partly Cloudy
7:56 PM 43.0 °F 41.3 °F 37.0 °F 80% 30.40 in 9.0 mi SW 3.5 mph - N/A   Partly Cloudy
8:56 PM 42.1 °F - 37.9 °F 85% 30.40 in 8.0 mi Calm Calm - N/A   Partly Cloudy
9:56 PM 39.9 °F - 36.0 °F 86% 30.41 in 7.0 mi Calm Calm - N/A   Partly Cloudy
10:56 PM 39.0 °F - 35.1 °F 86% 30.40 in 8.0 mi Calm Calm - N/A   Clear
11:56 PM 37.9 °F 35.5 °F 35.1 °F 89% 30.40 in 8.0 mi WSW 3.5 mph - N/A   Partly Cloudy